STARLINK-11420, 62591

Orbit data source: Space-Track

STARLINK-11420, 62591 is a payload satellite owned by SpaceX/Seattle (US) in LEO that was launched on Mon, 13 Jan 2025 UTC via an FALCON 9 launch vehicle from the Air Force Eastern Test Range (AFETR). Payload-class satellites include a variety of spacecraft equipped with specific instruments for various scientific and technological missions. These include communications satellites like Starlink; space stations such as the ISS; scientific satellites like the Hubble; Earth observation satellites from companies like Planet Labs, Umbra, and HawkEye 360; GPS; miniature CubeSats for education and research; and military/defense satellites.

Loading next visibility...
Identifier
62591, 2025-008E
Orbit
LEO
Last TLE update
15 hours ago
Origin
Manufacturer
SpaceX/Seattle
Mission
Operational Commercial Communications
Bus & Motor
STARLINK V2M, Unknown motor
Mass
730 kg wet, ~700 kg dry
Launch date (UTC)
2025-01-13 (6 months ago)
Launch vehicle
FALCON 9
Launch site
Air Force Eastern Test Range (AFETR)
Object type
Payload
Rocket body
Debris
Shape & HBR
Box + 2 Pan, 29 m
Radar Cross Section
36.964 m², Large (>1 m²)

Expand to show TLE details & history

TLE from 15 hours ago
0 STARLINK-11420
1 62591U 25008E   25181.77896513  .00178109  00000-0  13600-2 0  9999
2 62591  43.0010 204.7417 0000623 346.9587  13.1265 15.70875035 27661
Epoch: 2025-06-30T18:41Z
TLE epoch observation values (Epoch: 2025-06-30T18:41:42.587Z)
Latitude
0.00003°
Longitude
5.23041°
Altitude
355.758 km
Speed
7.698 km/s
True Right ascension
13h 38m 58s
True Declination
0° 00' 00"
Sunlit
Object was in daylight at epoch
Visualization orbit readout
Latitude
10.16366°
Longitude
12.40015°
Altitude
354.415 km
Speed
7.699 km/s
Apparent Right ascension
12h 16m 13s
Apparent Declination
-16° 39' 53"
Sunlit
Object is in daylight
Visualization observer readout
Local Sidereal Time
21:39:23
Azimuth
292.943° NW
Elevation
-48.881°
Doppler factor
1
Orbital elements
Apogee altitude
358.796 km
Perigee altitude
357.957 km
Semi-major axis
6,736.513 km
Eccentricity
0.00006
Inclination
43.001°
RAAN
204.7417°
Arg. of periapsis
346.9587°
True anomaly
Unknown
Mean anomaly
13.1265°
Eccentric anomaly
Unknown
Mean motion
3.92546 °/min
Orbital period
91.71 mins
BSTAR
0.00136
Loading maneuver chart data...
Loading SW <> Apogee altitude chart data...
Loading historical data...
Loading historical data...
Loading historical data...
Loading historical data...
Loading historical data...
Loading historical data...
Loading historical data...

STARLINK-11420 Visibility forecast

Observer location: undefined°, undefined°

Span
Click to sort rows by Start time (UTC) header in descending order
Start Az.
Max El. time (UTC)
Max El. Az.
Max El.
End time (UTC)
End Az.
5 mins2025-07-01 10:25:00.240Z275.628° WNW2025-07-01 10:28:00.240Z193.27° SSW29.092°2025-07-01 10:30:00.240Z143.639° SSE
4 mins2025-07-02 04:29:00.240Z197.641° SSW2025-07-02 04:30:00.240Z168.612° S24.914°2025-07-02 04:33:00.240Z88.176° E
4 mins2025-07-02 06:05:00.240Z272.995° WNW2025-07-02 06:06:00.240Z303.811° NW39.19°2025-07-02 06:09:00.240Z68.203° E
4 mins2025-07-02 07:41:00.240Z299.319° NW2025-07-02 07:43:00.240Z26.239° NE33.778°2025-07-02 07:45:00.240Z75.612° E
4 mins2025-07-02 09:17:00.240Z283.239° WNW2025-07-02 09:19:00.240Z170.366° S43.251°2025-07-02 09:21:00.240Z117.968° SE
|